ARIANE 5 DEB [SYLDA] (44478 NORAD) Tracking and Keplerian Element Data

This shows tracking and keplerian element data for the satellite.

Feedback or suggestion? Click here.




ElementValue
Catalog44478
NameARIANE 5 DEB [SYLDA]
Epoch Orbit22
Epoch Day228.65023188
Epoch Year2019
RAAN72.3446
Inclination4.5137
Eccentricity0.7283744
Argument of Perigee185.869
Mean Anonmoly154.8637
Mean Motion2.284115
Decay Rate9.902E-05
L11 44478U 19049D 19228.65023188 .00009902 00000-0 21465-2 0 9995
L22 44478 4.5137 72.3446 7283744 185.8690 154.8637 2.28411500 228

Live tracking and technical data element details for ARIANE 5 DEB [SYLDA] (NORAD 44478). ARIANE 5 DEB [SYLDA] can be tracked NOW for your location showing map with azimuth and elevation plus other details from your city location.

Track the satellite on the map from your city or location and see movement details for azimuth, elevation, latitude, longitude, range, height, and movement on the map or in text.







IsCatalogInMostPopularTable: catalog: 44478, numindb: 2
Update: records affected: 1



GetName: 44478 ARIANE 5 DEB [SYLDA]

Hit Count: updated at: Wed, 21 Aug 2019 12:31:23 GMT